Dewpoint
46 39 37 46 60 62 63 65 65 65 64 64 64 64 64 65 64 63 64 64 64 64 62 61 60 59 59 58 58 58 57 57 57 56 57 56 56 56 56 55 53 52 51
44 39 38 34 37 57 61 63 64 65 65 65 64 64 64 65 66 65 63 63 63 64 63 62 61 60 58 58 57 57 57 57 57 56 55 54 55 54 53 53 52 52 50
42 41 36 36 37 39 52 60 62 63 65 65 64 63 63 63 64 64 64 63 62 62 62 62 61 61 60 61 59 59 58 58 58 57 58 53 52 52 53 49 48 47 48
41 35 34 35 37 38 41 45 56 62 63 64 64 63 64 63 63 64 64 64 63 62 61 61 61 61 61 60 61 61 60 59 58 57 56 57 55 54 53 52 49 47 46
38 37 36 37 38 42 42 41 41 42 43 55 62 63 63 63 63 63 63 63 64 64 64 62 61 60 61 61 60 60 60 60 60 59 56 56 55 54 52 52 54 51 47
35 35 36 41 42 43 41 44 44 44 41 41 42 51 58 60 60 61 60 61 61 62 63 64 64 63 61 61 60 60 60 60 60 60 59 57 56 53 53 51 52 53 50
37 36 37 41 43 43 45 45 45 46 46 45 45 43 41 42 47 49 51 50 52 56 58 59 62 63 63 63 62 61 61 60 60 60 60 59 58 57 55 54 53 52 48
36 35 38 42 43 44 45 45 45 46 46 47 47 48 48 47 48 48 50 52 54 55 56 57 59 60 61 61 61 61 61 60 59 58 56 55 52 53 54 54 52 49 47
34 36 40 42 43 44 44 45 45 46 46 46 46 46 47 47 47 48 49 50 50 52 53 54 55 55 58 59 59 57 54 53 52 52 51 50 47 48 48 50 51 50 47
37 41 43 42 43 43 43 45 45 44 45 44 43 42 41 42 41 41 42 44 45 46 47 48 49 49 50 51 52 51 50 49 48 48 47 46 45 44 45 46 46 47 48
41 42 41 41 41 42 43 44 43 42 40 39 38 37 36 36 36 36 37 38 38 39 40 42 44 45 46 47 48 48 47 46 45 45 44 42 42 42 41 42 42 42 43
42 42 40 40 40 40 41 42 41 40 38 37 36 35 35 35 35 35 35 35 36 36 37 39 40 40 41 42 44 43 43 43 42 42 41 40 39 39 39 40 38 38 39
41 40 39 39 39 39 40 41 40 38 37 36 35 35 35 35 35 35 35 36 36 36 37 37 38 38 38 38 39 39 39 39 39 39 39 38 38 37 37 37 37 36 36
41 39 38 38 38 38 39 39 38 37 37 36 35 35 35 35 35 36 36 36 36 36 36 36 36 36 37 37 37 37 36 36 35 36 36 35 35 35 35 34 34 34 34
40 40 39 37 36 36 37 38 38 37 36 36 36 36 36 36 36 36 36 36 36 35 35 35 36 36 37 36 36 36 36 36 37 37 37 36 36 36 35 33 33 33 32
41 40 39 38 36 35 35 38 37 37 37 36 36 36 36 36 36 36 36 35 36 36 36 36 37 37 37 39 39 37 36 35 35 33 33 33 33 36 36 35 34 31 30
41 41 40 39 37 35 35 37 37 37 36 36 36 36 36 36 36 36 36 36 36 37 36 36 36 36 37 38 38 37 35 34 33 32 32 31 30 29 30 33 32 32 33
40 41 41 39 38 36 35 36 37 37 37 36 36 36 36 36 35 35 35 36 37 36 37 35 36 38 37 38 37 35 31 28 27 27 28 29 28 27 27 27 27 25 28
40 41 42 40 37 36 35 36 36 36 36 36 36 36 36 36 35 35 35 35 35 34 34 35 35 36 36 35 33 28 26 26 25 25 27 27 26 30 26 25 26 22 21
38 39 40 38 37 35 35 35 35 35 35 36 36 36 36 36 35 35 34 34 34 33 31 31 30 31 30 30 29 25 24 24 24 25 26 28 25 25 28 21 18 19 19
36 37 37 37 36 35 35 35 35 36 37 36 37 37 36 36 35 34 34 33 32 30 29 28 28 29 29 29 29 27 21 21 21 20 20 23 26 24 25 25 18 20 23
36 36 36 36 36 36 35 35 35 36 37 37 37 36 36 36 35 34 33 31 29 27 26 26 26 26 26 29 28 26 24 24 19 18 20 22 24 22 24 25 25 29 25
35 35 36 35 35 36 35 35 35 36 36 36 36 35 35 35 34 32 30 29 26 25 24 25 24 24 24 25 29 29 28 25 19 20 23 26 25 23 21 24 25 27 21
34 35 35 35 35 35 35 34 35 36 35 35 35 35 34 33 32 31 30 28 26 24 23 23 22 23 22 22 25 26 26 27 24 25 24 21 21 21 21 23 23 20 20
33 34 34 34 35 35 35 35 36 35 35 35 35 34 33 33 31 30 29 28 26 25 23 23 21 20 18 19 23 24 21 21 22 22 16 12 13 16 18 19 20 21 22
34 33 34 34 34 34 34 35 36 35 34 34 34 33 33 32 31 29 29 32 30 30 28 25 21 17 19 22 26 28 27 26 27 22 17 14 13 15 16 18 19 21 23
Lifted_Index
0 -0 -1 -1 -2 -3 -3 -3 -3 -3 -3 -3 -3 -3 -4 -4 -3 -3 -3 -2 -1 -1 -1 -0 -0 -0 0 1 1 1 1 1 1 1 1 1 1 1 1 2 2 2 2
0 0 -0 -1 -1 -2 -2 -3 -3 -3 -3 -3 -3 -4 -4 -4 -3 -3 -3 -2 -2 -1 -1 -1 -1 -1 -0 -0 0 1 1 1 1 1 1 1 1 1 2 2 2 2 2
1 1 1 1 1 1 -0 -1 -2 -3 -3 -3 -4 -4 -4 -4 -4 -4 -3 -3 -2 -1 -1 -1 -1 -1 -1 -1 -1 -0 0 0 0 0 1 1 1 2 2 2 2 1 2
1 1 2 2 2 3 2 1 -0 -2 -3 -3 -4 -4 -4 -4 -4 -4 -3 -3 -2 -2 -2 -2 -2 -1 -1 -1 -1 -1 -0 -0 0 0 1 1 1 2 2 2 2 2 2
2 2 2 2 3 3 4 3 2 0 -2 -3 -3 -4 -4 -4 -4 -4 -3 -3 -3 -3 -3 -2 -2 -2 -2 -1 -1 -1 -0 -0 -0 0 1 1 1 2 3 3 3 3 3
3 3 2 3 3 4 4 4 4 2 0 -1 -2 -3 -3 -3 -2 -2 -2 -2 -2 -2 -2 -2 -2 -2 -2 -1 -1 -1 -1 -0 -0 0 1 2 2 2 3 3 3 3 4
3 3 3 3 3 4 4 4 4 4 3 2 1 1 0 1 2 2 2 2 1 1 0 -0 -1 -1 -1 -1 -1 -1 -1 -0 0 1 1 2 2 3 3 3 3 4 5
3 3 3 3 3 4 4 4 4 4 4 4 4 4 4 4 5 5 5 5 5 4 3 3 2 1 -0 -1 -1 -1 -0 0 1 1 2 3 3 3 3 4 5 5 6
3 4 4 3 4 4 4 4 4 5 5 5 5 5 6 6 6 6 7 7 6 6 5 4 4 2 1 -0 -1 -1 -0 1 1 2 3 3 4 4 5 5 6 6 7
3 4 4 4 3 4 4 4 4 5 6 6 6 6 6 7 7 7 7 7 6 5 5 4 3 3 2 1 1 0 1 2 3 3 4 5 5 6 6 7 7 7 8
3 3 3 3 3 4 4 4 4 5 6 6 6 6 6 6 6 7 7 6 6 6 5 4 4 3 3 2 2 2 3 3 4 4 5 6 7 8 8 8 8 9 9
3 3 3 3 3 4 4 4 5 5 5 6 6 6 6 6 6 6 6 7 7 6 6 6 5 5 5 4 5 5 5 5 6 6 7 8 9 9 9 9 9 9 9
3 3 3 3 3 4 4 4 5 5 5 5 5 5 6 6 7 7 7 7 7 7 7 7 7 7 7 7 7 7 8 8 8 8 9 9 9 9 9 9 9 9 9
3 3 3 3 3 3 4 4 4 4 5 5 5 5 6 6 7 8 8 8 8 8 8 8 8 9 9 9 9 9 9 9 10 9 9 9 9 9 10 10 10 9 9
3 3 3 3 3 3 3 3 3 4 5 5 5 5 5 6 7 8 8 9 9 9 9 9 9 9 10 10 10 10 10 10 9 9 9 10 10 10 10 10 10 10 11
3 3 3 3 2 2 2 2 3 4 4 5 5 5 5 6 7 8 8 9 9 9 9 9 9 10 10 10 10 10 10 10 9 9 10 10 11 12 13 13 13 14 14
3 3 2 2 2 2 2 2 3 4 4 5 5 5 6 6 7 8 8 9 9 9 10 9 10 10 10 11 11 11 11 10 10 11 12 13 14 15 16 17 17 18 18
3 2 2 2 2 2 2 2 3 4 4 5 5 6 6 7 7 8 8 8 9 9 10 10 10 11 11 12 12 12 12 13 13 14 16 16 17 18 19 19 18 19 20
3 3 2 2 2 2 2 2 3 3 4 5 6 7 7 7 8 8 8 9 9 9 10 11 11 12 13 14 14 15 15 16 16 17 19 19 19 20 20 19 18 18 19
3 3 3 2 2 2 2 2 2 3 4 5 6 7 8 8 8 8 9 9 10 10 11 12 12 14 15 17 18 18 18 17 17 18 19 19 20 20 20 19 18 18 18
3 3 2 2 2 2 2 2 3 4 5 6 7 8 8 8 9 9 9 10 10 11 11 12 14 16 18 19 20 20 19 18 17 17 18 19 20 20 20 20 19 19 20
2 2 2 2 2 2 2 3 4 5 6 7 8 8 9 9 9 9 9 10 11 11 12 13 15 18 19 20 20 20 19 18 18 17 18 19 20 20 20 21 20 20 20
2 2 2 2 2 3 3 4 5 6 7 8 8 9 9 9 9 9 10 10 11 11 13 14 16 18 19 20 20 19 19 19 18 18 19 19 20 20 20 20 20 20 20
2 2 2 2 2 3 4 5 6 7 7 8 8 9 9 10 10 10 10 11 12 13 15 16 17 18 18 18 19 19 19 19 19 19 19 19 19 19 19 20 20 20 20
2 2 2 2 2 3 4 6 7 7 7 7 8 9 9 9 10 10 11 12 13 15 17 18 18 18 18 18 19 19 18 18 18 18 18 17 17 17 17 18 18 19 19
3 2 2 2 2 3 4 6 7 7 7 7 8 8 9 9 9 10 11 13 15 17 18 19 18 18 18 18 19 19 18 18 18 17 16 16 16 16 16 16 17 18 18